[[{"header":{"parameterUnit":"m.s-1","parameterCategory":1,"la1":30.2991,"la2":30.254,"lo1":-89.0895,"lo2":-89.0444,"dy":0.0017,"dx":0.0017,"nx":28,"ny":28,"refTime":"2025-08-20T03:00:00:Z","depth":0,"parameterNumber":2,"parameterNumberName":"U-component_of_WINDS"},"data":[0,0,0,0,0,0,0,0,0,0,0,0,0,0,0,0,0,0,0,0,0,0,0,0,0,0,0,0,0,0,0,0,0,0,0,0,0,0,0,0,0,0,0,0,0,0,0,0,0,0,0,0,0,0,0,0,0,0,0.8451,0.8452,0,0.8583,0.8584,0.8586,0.8636,0.8636,0.8636,0.8635,0.8771,0.8775,0.8779,0,0,0,0,0,0,0,0,0,0,0,0,0,0.8242,0.8245,0.8451,0.8452,0.8454,0.8582,0.8584,0.8586,0.8636,0.8636,0.8635,0.8635,0.877,0.8774,0.8779,0,0,0,0,0,0,0,0,0,0,0,0,0,0.8349,0.8246,0.8451,0.8495,0.85,0.8582,0.8584,0.8587,0.8637,0.8636,0.8635,0.8635,0.8768,0.8774,0.878,0.8828,0,0,0.8798,0.88,0,0,0,0,0,0,0,0,0.8343,0.8357,0.8487,0.8492,0.8498,0.8592,0.856,0.8667,0.8637,0.8585,0.8635,0.8635,0.8712,0.8722,0.8749,0.8834,0.884,0.8798,0.8802,0.8804,0.8806,0,0,0,0,0,0,0,0.8335,0.8351,0.8503,0.8488,0.8495,0.8508,0.8522,0.8581,0.865,0.8589,0.8593,0.8608,0.8715,0.8743,0.8752,0.8842,0.8798,0.8803,0.8807,0.8809,0.8972,0.8973,0,0,0,0,0,0,0.8321,0.8345,0.8499,0.8507,0.8417,0.8512,0.8528,0.8563,0.8649,0.8662,0.8608,0.861,0.8733,0.8745,0.8757,0.8818,0.8804,0.881,0.8813,0.8971,0.8972,0.8973,0,0,0,0,0,0,0.8316,0.8334,0.8494,0.8427,0.8448,0.8516,0.8554,0.8566,0.8593,0.8664,0.8676,0.8624,0.8733,0.8749,0.8809,0.8824,0.8813,0.8818,0.897,0.8972,0.8973,0.8941,0,0,0,0,0,0,0.831,0.8332,0.8351,0.8427,0.8452,0.8544,0.8555,0.8569,0.8603,0.8607,0.8682,0.8694,0.8734,0.88,0.8815,0.8832,0.8823,0.8969,0.8971,0.8972,0.8941,0.8941,0.8941,0,0,0,0,0,0.8302,0.8338,0.8352,0.837,0.8477,0.8545,0.8559,0.8603,0.8604,0.8624,0.8669,0.8692,0.8819,0.8806,0.8823,0.8842,0.8969,0.897,0.8972,0.8942,0.8941,0.8941,0,0,0,0,0,0,0.8262,0.8348,0.8365,0.8426,0.8478,0.8553,0.8579,0.8602,0.8654,0.8655,0.8709,0.8725,0.8781,0.8818,0.8801,0.8892,0.8896,0.8901,0.8866,0.8867,0.8867,0.8857,0.8828,0,0,0,0,0,0.826,0.8308,0.8381,0.8428,0.8453,0.8511,0.8542,0.8572,0.8628,0.865,0.8699,0.8752,0.8804,0.8838,0.8889,0.8947,0.8963,0.8968,0.8967,0.8967,0.8971,0.9003,0.9005,0.8979,0.8978,0.8978,0,0,0.8257,0.831,0.8337,0.8421,0.8464,0.8512,0.8529,0.858,0.8615,0.8657,0.8718,0.8755,0.8818,0.8877,0.8905,0.8909,0.8982,0.8969,0.8968,0.8973,0.9005,0.9007,0.901,0.898,0.8979,0.8979,0,0,0.8276,0.8321,0.8365,0.8408,0.8473,0.8511,0.8521,0.8593,0.862,0.8681,0.8713,0.8756,0.8845,0.8888,0.8921,0.8954,0.8977,0.897,0.8969,0.8999,0.9002,0.9004,0.9015,0.9018,0.8973,0.8973,0.8973,0,0.8265,0.8338,0.8385,0.8433,0.8468,0.8508,0.8552,0.8591,0.8669,0.8693,0.8695,0.8807,0.8852,0.892,0.8928,0.8954,0.8967,0.8962,0.8997,0.9,0.9003,0.9014,0.9018,0.8972,0.8972,0.8972,0.8972,0,0.832,0.837,0.8398,0.8472,0.851,0.8556,0.8609,0.8642,0.8668,0.8706,0.8767,0.8822,0.8885,0.8903,0.893,0.8975,0.8975,0.8987,0.8992,0.9003,0.9015,0.9019,0.897,0.8971,0.8971,0.8971,0,0,0.8319,0.8417,0.8426,0.846,0.8534,0.8573,0.862,0.8681,0.8708,0.8761,0.8801,0.8874,0.8885,0.8923,0.8954,0.8981,0.9002,0.8989,0.8991,0.8989,0.9055,0.9046,0.905,0.9017,0.9018,0.9019,0.905,0,0.8347,0.8433,0.8476,0.8543,0.859,0.8627,0.8668,0.8717,0.8753,0.8797,0.8838,0.8888,0.8899,0.8922,0.895,0.8994,0.9016,0.8992,0.9055,0.9057,0.9038,0.9056,0.9047,0.9074,0.9054,0.9055,0.9056,0,0.8392,0.8444,0.8516,0.8583,0.8604,0.864,0.8699,0.8741,0.8797,0.8821,0.8862,0.8892,0.8943,0.8943,0.9012,0.8995,0.9023,0.9048,0.905,0.9058,0.9057,0.9064,0.9083,0.9087,0.9064,0.9063,0.9062,0,0.8383,0.8471,0.8525,0.8552,0.8632,0.8656,0.8691,0.8746,0.878,0.8831,0.8853,0.891,0.8941,0.8983,0.9027,0.9024,0.9092,0.9096,0.9113,0.9112,0.9127,0.9125,0.915,0.9144,0.9144,0.9144,0.9144,0,0.8411,0.8453,0.8522,0.8555,0.8603,0.8651,0.8697,0.8734,0.8783,0.8823,0.8859,0.8896,0.8952,0.8996,0.9031,0.9083,0.9096,0.9117,0.9126,0.9114,0.9111,0.9134,0.9133,0.9145,0.9145,0.9145,0.9145,0,0.8409,0.8457,0.8518,0.8588,0.8607,0.8639,0.8699,0.8732,0.877,0.882,0.8835,0.8894,0.8947,0.8995,0.9067,0.909,0.9142,0.9153,0.9123,0.9128,0.9142,0.914,0.9182,0.919,0.9179,0.9179,0.9179,0,0.8424,0.8457,0.853,0.856,0.8594,0.8641,0.8675,0.8723,0.8757,0.8823,0.8848,0.8904,0.8951,0.9035,0.9084,0.9138,0.915,0.9161,0.9159,0.9145,0.915,0.9148,0.9151,0.9161,0.9161,0.9161,0.9161,0,0.8444,0.8466,0.8514,0.857,0.8609,0.8656,0.8703,0.8725,0.8782,0.8818,0.8873,0.8909,0.8981,0.9036,0.9096,0.9131,0.9155,0.9161,0.9168,0.9156,0.9137,0.9147,0.9122,0.916,0.916,0.916,0.916,0.916,0.8451,0.8482,0.8538,0.859,0.8631,0.8674,0.8708,0.8749,0.8796,0.8858,0.8883,0.8939,0.8993,0.9075,0.911,0.9153,0.9158,0.9168,0.9171,0.9172,0.917,0.913,0.9164,0.9164,0.9165,0.9165,0.9165,0,0.8473,0.851,0.8558,0.8623,0.8663,0.8682,0.8735,0.8767,0.8816,0.8864,0.891,0.8972,0.9025,0.9077,0.9133,0.9158,0.917,0.9171,0.917,0.9177,0.9163,0.9151,0.916,0.916,0.916,0.916,0.916,0.916,0.8489,0.8542,0.857,0.8643,0.868,0.8735,0.8764,0.8803,0.8842,0.891,0.8954,0.8987,0.9037,0.9096,0.9145,0.9159,0.9178,0.9176,0.9192,0.9178,0.9178,0.9178,0.9167,0.9179,0.9179,0.9203,0.9203,0.9204]},{"header":{"parameterUnit":"m.s-1","parameterCategory":1,"la1":30.2991,"la2":30.254,"lo1":-89.0895,"lo2":-89.0444,"dy":0.0017,"dx":0.0017,"nx":28,"ny":28,"refTime":"2025-08-20T03:00:00:Z","depth":0,"parameterNumber":3,"parameterNumberName":"V-component_of_WINDS"},"data":[0,0,0,0,0,0,0,0,0,0,0,0,0,0,0,0,0,0,0,0,0,0,0,0,0,0,0,0,0,0,0,0,0,0,0,0,0,0,0,0,0,0,0,0,0,0,0,0,0,0,0,0,0,0,0,0,0,0,3.875,3.875,0,3.8683,3.8682,3.8681,3.8678,3.8679,3.868,3.868,3.8603,3.86,3.8597,0,0,0,0,0,0,0,0,0,0,0,0,0,3.8869,3.8867,3.8751,3.875,3.8749,3.8683,3.8682,3.8681,3.8678,3.8679,3.868,3.8681,3.8604,3.86,3.8597,0,0,0,0,0,0,0,0,0,0,0,0,0,3.8811,3.8867,3.8751,3.874,3.8738,3.8683,3.8682,3.8681,3.8678,3.8679,3.868,3.8681,3.8605,3.8601,3.8597,3.8546,0,0,3.8584,3.8582,0,0,0,0,0,0,0,0,3.8814,3.8807,3.8742,3.874,3.8738,3.869,3.8695,3.8635,3.8677,3.87,3.8681,3.8682,3.863,3.8624,3.8608,3.8542,3.8539,3.8583,3.8581,3.8579,3.8578,0,0,0,0,0,0,0,3.8819,3.881,3.8723,3.8741,3.8739,3.8735,3.8728,3.8684,3.8659,3.8698,3.8698,3.8691,3.863,3.8613,3.8607,3.8538,3.8583,3.858,3.8577,3.8575,3.8424,3.8422,0,0,0,0,0,0,3.8826,3.8813,3.8726,3.8721,3.8781,3.8732,3.8725,3.8704,3.866,3.8654,3.869,3.8691,3.8619,3.8612,3.8604,3.854,3.8579,3.8575,3.8572,3.8425,3.8424,3.8422,0,0,0,0,0,0,3.8828,3.8818,3.8728,3.8767,3.8756,3.8729,3.8706,3.8702,3.8685,3.8653,3.8648,3.8677,3.862,3.861,3.856,3.8537,3.8573,3.8569,3.8427,3.8425,3.8423,3.8413,0,0,0,0,0,0,3.8832,3.8819,3.8801,3.8767,3.8754,3.8688,3.8705,3.87,3.8679,3.868,3.864,3.8634,3.862,3.8567,3.8556,3.8532,3.8566,3.8429,3.8426,3.8423,3.8415,3.841,3.8407,0,0,0,0,0,3.8836,3.88,3.8801,3.879,3.8731,3.8687,3.8679,3.8666,3.8677,3.8658,3.8637,3.8636,3.8542,3.8562,3.855,3.8524,3.843,3.8427,3.8424,3.8417,3.8411,3.8407,0,0,0,0,0,0,3.8829,3.8795,3.8795,3.8747,3.8721,3.8687,3.8662,3.866,3.8628,3.8629,3.8612,3.8602,3.8553,3.8534,3.8556,3.8471,3.8487,3.8481,3.8486,3.848,3.8476,3.8481,3.8562,0,0,0,0,0,3.8823,3.8793,3.8763,3.8723,3.871,3.8689,3.8669,3.8661,3.8631,3.8619,3.8594,3.8563,3.8527,3.8503,3.8467,3.8413,3.8402,3.8389,3.8385,3.8381,3.8376,3.8343,3.8336,3.8411,3.8411,3.8411,0,0,3.8808,3.8785,3.8767,3.8722,3.87,3.8666,3.8679,3.8643,3.8617,3.8612,3.8565,3.8546,3.8509,3.8457,3.8432,3.8439,3.8353,3.8377,3.8375,3.8371,3.8339,3.8332,3.8326,3.8409,3.8409,3.841,0,0,3.8763,3.8745,3.8709,3.8687,3.8655,3.8641,3.8632,3.8599,3.8587,3.8539,3.8535,3.8502,3.844,3.8414,3.8393,3.8339,3.8335,3.8327,3.8305,3.8273,3.8267,3.8262,3.8241,3.8234,3.8322,3.8322,3.8322,0,3.8748,3.87,3.869,3.8654,3.8633,3.8631,3.8593,3.8572,3.8528,3.8512,3.8522,3.8443,3.8419,3.8359,3.8346,3.833,3.8317,3.8331,3.827,3.8264,3.8259,3.8238,3.8231,3.8321,3.8322,3.8322,3.8322,0,3.8682,3.8648,3.8623,3.8584,3.856,3.8524,3.8505,3.8482,3.8476,3.846,3.841,3.8381,3.8339,3.8325,3.8318,3.8264,3.8269,3.8274,3.8289,3.8251,3.8231,3.8224,3.832,3.832,3.8321,3.8321,0,0,3.863,3.8587,3.8578,3.8559,3.8524,3.8496,3.8458,3.842,3.8399,3.8369,3.8335,3.8283,3.8288,3.8263,3.8253,3.8226,3.8183,3.8234,3.8233,3.8224,3.8119,3.8114,3.8105,3.8181,3.818,3.8179,3.8121,0,3.858,3.8516,3.8506,3.8448,3.8416,3.8413,3.8379,3.8352,3.8336,3.8304,3.8285,3.8248,3.8258,3.8243,3.8216,3.8194,3.8161,3.8198,3.8146,3.8145,3.8154,3.8095,3.809,3.8037,3.8114,3.8112,3.8111,0,3.8514,3.8485,3.8425,3.8393,3.8379,3.8349,3.8313,3.8283,3.8251,3.8241,3.8215,3.8208,3.8165,3.8184,3.8124,3.8149,3.8127,3.8113,3.8111,3.8104,3.8125,3.8085,3.802,3.8011,3.8099,3.81,3.8101,0,3.848,3.8426,3.8383,3.8367,3.8329,3.8308,3.8291,3.8261,3.8238,3.8205,3.819,3.8152,3.813,3.8099,3.8081,3.8097,3.8021,3.8039,3.8009,3.801,3.7992,3.7993,3.7921,3.7981,3.7981,3.7981,3.7982,0,3.8425,3.8387,3.8367,3.834,3.8297,3.8285,3.8242,3.8224,3.8198,3.8165,3.816,3.8129,3.8108,3.8073,3.8058,3.8009,3.8,3.7988,3.7984,3.7988,3.7989,3.7972,3.7974,3.7979,3.798,3.798,3.7981,0,3.8379,3.8365,3.8317,3.8286,3.8277,3.8246,3.8218,3.819,3.8175,3.8134,3.8123,3.8097,3.8056,3.8036,3.7983,3.7973,3.7918,3.7917,3.7929,3.7927,3.7898,3.79,3.7811,3.7798,3.7869,3.7868,3.7867,0,3.8344,3.8316,3.8282,3.8262,3.8244,3.8211,3.8188,3.8174,3.815,3.8112,3.8088,3.8047,3.8013,3.7947,3.7922,3.7881,3.7878,3.785,3.7872,3.7876,3.7875,3.7877,3.7873,3.7845,3.7845,3.7844,3.7844,0,3.8283,3.8277,3.8246,3.8212,3.8186,3.8158,3.813,3.8113,3.8094,3.8066,3.8026,3.8,3.7948,3.7906,3.7864,3.7843,3.7838,3.7837,3.7828,3.783,3.7838,3.7831,3.7916,3.7839,3.7839,3.784,3.784,3.784,3.824,3.8215,3.8187,3.8152,3.813,3.8104,3.8077,3.8058,3.8025,3.7983,3.7976,3.7932,3.7899,3.7843,3.782,3.7784,3.7789,3.7776,3.7773,3.7769,3.7767,3.7845,3.7776,3.7776,3.7776,3.7776,3.7776,0,3.8177,3.816,3.8128,3.8091,3.8062,3.8065,3.8034,3.8009,3.7972,3.7943,3.791,3.7862,3.7822,3.7794,3.7752,3.7728,3.7725,3.7717,3.7717,3.7712,3.7765,3.7777,3.772,3.772,3.772,3.772,3.772,3.772,3.8141,3.8097,3.8088,3.8032,3.8014,3.7973,3.7955,3.793,3.7907,3.7854,3.7822,3.7805,3.7775,3.7731,3.7693,3.7686,3.7669,3.7661,3.7654,3.7703,3.7709,3.7714,3.7725,3.7659,3.7659,3.7604,3.7603,3.7603]}]]